Location: Dehesa de la Cepeda
(40.6574°N, 4.3013°W)
Time: 10:36:11
(UTC+00:00)

Transit 2A Rocket - Pass Details

Date: 04 August 2021
Orbit: 586 x 917 km, 66.7° (Epoch: 24 September)

Event Time Altitude Azimuth Distance (km) Brightness Sun altitude
Rises 13:21:12 0° 206° (SSW) 2,821 8.3 63.3°
Reaches altitude 10° 13:23:22 10° 205° (SSW) 1,945 7.7 63.1°
Maximum altitude 13:27:43 83° 118° (ESE) 642 6.0 62.6°
Drops below altitude 10° 13:32:27 10° 31° (NNE) 2,109 7.1 62.1°
Sets 13:34:53 0° 31° (NNE) 3,081 7.9 61.8°
